User: anonymous   Login
Location: Unspecified
(0.0000°N, 0.0000°E)
Time: 03:34:15
(UTC+00:00)
Language:

NOSS 3-1 (A) - Orbit

View from above orbital plane
View from above orbital plane
View from above satellite
View from above satellite

Ground track
Ground track

The orbit data is extracted from the following two-line orbital elements,

1 26905U 01040A   17346.71947141 0.00000000  00000-0  00000-0 0    05
2 26905  63.4100 297.7172 0385000 358.9991   1.0009 13.40755257    02
Epoch (UTC): 12 December 2017 17:16:02
Eccentricity: 0.0385000
inclination: 63.4100°
perigee height: 818 km
apogee height: 1394 km
right ascension of ascending node: 297.7172°
argument of perigee: 358.9991°
revolutions per day: 13.40755257
mean anomaly at epoch: 1.0009°
orbit number at epoch: 0

The dashed part of the orbit path shows where the satellite is in the earth's shadow,  

DLR